Location: Artiguelouve
(43.3167°N, 0.4667°W)
Time: 11:22:27
(UTC+00:00)

Daily predictions for brighter satellites

Satellite Brightness Start Highest point End
(mag) Time Altitude Azimuth Time Altitude Azimuth Time Altitude Azimuth
ATLAS CENTAUR R/B 2.8 18:18:08 10° SSE 18:20:19 15° ESE 18:22:31 10° ENE
SKYMED 2 3.7 18:16:55 10° N 18:21:18 82° WNW 18:25:37 10° SSW
SL-4 R/B 3.5 18:18:32 10° NW 18:21:20 21° N 18:24:03 10° NE
H-2A R/B 3.5 18:18:14 10° N 18:22:05 40° WNW 18:25:55 10° SW
Cosmos 1805 Rocket 4.2 18:18:47 10° SSW 18:23:06 61° W 18:27:29 10° N
Cosmos 1470 Rocket 4.4 18:19:43 10° SSE 18:23:33 29° E 18:27:23 10° NNE
Meteor 1-20 Rocket 4.2 18:18:51 10° S 18:24:12 61° E 18:29:37 10° NNE
CZ-2C R/B 3.4 18:23:10 10° NNE 18:28:00 31° E 18:32:43 10° SSE
Okean O Rocket 3.7 18:24:20 10° SSW 18:28:16 33° W 18:32:12 10° NNW
Cosmos 1689 Rocket 2.7 18:26:36 10° NNE 18:29:13 31° E 18:31:50 10° SSE
Cosmos 1992 Rocket 4.4 18:27:01 10° S 18:31:53 41° ESE 18:36:45 10° NE
PSLV R/B 4.0 18:30:36 10° NNE 18:34:38 55° E 18:38:37 10° S
Cosmos 1486 Rocket 4.2 18:31:01 10° NNW 18:36:13 55° ENE 18:41:24 10° SE
SAR-Lupe-4 3.9 18:33:33 10° NNE 18:36:58 41° E 18:40:21 10° S
Cosmos 968 Rocket 3.5 18:31:47 10° NNW 18:37:02 63° ENE 18:42:15 10° SSE
IRS-1C Rocket 4.1 18:31:59 10° SSE 18:37:14 90° SW 18:42:34 10° NNW
H-2A R/B 2.1 18:33:14 10° SSE 18:38:39 77° ENE 18:44:07 10° N
APEX 2.4 18:38:33 10° NNW 18:41:20 78° WSW 18:44:02 10° SSE
Cosmos 1933 Rocket 4.3 18:40:44 10° SSE 18:44:33 31° E 18:48:24 10° NNE
USA 234 3.6 18:38:30 10° ENE 18:44:44 45° SE 18:50:56 10° SSW
CSL-04 Rocket 3.9 18:40:32 10° SE 18:45:52 51° ENE 18:51:12 10° N
Cosmos 1666 Rocket 3.7 18:41:39 10° SSW 18:45:58 75° W 18:50:18 10° N
CSL-04 Debris 4.3 18:40:43 10° SE 18:45:59 54° ENE 18:51:18 10° N
Aureole 2 Rocket 2.9 18:44:30 10° N 18:46:36 22° ENE 18:47:11 20° E
SeaSat 1 2.6 18:41:56 10° NE 18:46:47 53° ESE 18:51:35 10° S
Cosmos 1844 Rocket 3.4 18:42:20 10° N 18:47:21 33° NE 18:51:49 12° ESE
Cosmos 1271 Rocket 3.3 18:44:30 10° NNW 18:48:11 59° W 18:51:52 10° S
Cosmos 1862 Rocket 3.5 18:45:11 10° N 18:49:41 69° E 18:54:08 10° SSE
Cosmos 1666 4.1 18:47:44 10° SE 18:50:15 18° E 18:52:47 10° NE
Cosmos 2242 Rocket 4.5 18:46:32 10° NNE 18:50:27 28° ENE 18:54:19 10° SE
ERS-2 2.0 18:46:55 10° NNE 18:50:34 69° ESE 18:54:11 10° S
Nadezhda 3 Rocket 4.0 18:49:21 10° N 18:55:43 70° E 19:02:04 10° SSE
Cosmos 1844 4.5 18:50:43 10° N 18:55:54 33° NE 18:59:37 17° ESE
SAR-Lupe-1 3.9 18:52:38 10° NNE 18:56:14 77° ESE 18:59:49 10° S
Cosmos 1602 3.9 18:53:02 10° SSW 18:56:55 78° W 19:00:51 10° N
Meteor 1-19 Rocket 4.3 18:51:03 10° N 18:57:02 75° ENE 19:02:47 10° SSE
Cosmos 2360 Rocket 2.4 18:53:14 10° S 18:58:38 49° ESE 19:04:04 10° NE
Cosmos 2154 Rocket 3.9 18:53:09 10° S 18:59:21 80° E 19:05:34 10° N
Cosmos 2074 Rocket 4.4 18:54:12 10° SSW 19:00:26 67° W 19:06:40 10° N
Cosmos 2278 Rocket 4.2 18:59:53 10° NNE 19:01:09 11° NE 19:02:27 10° NE
Cosmos 1354 Rocket 4.3 18:57:01 10° N 19:02:04 45° ENE 19:06:39 12° SE
YAOGAN 1 3.0 18:57:55 10° S 19:02:12 66° W 19:06:31 10° NNW
Cosmos 1295 Rocket 4.4 18:57:41 10° S 19:03:55 72° E 19:10:06 10° NNE
Cosmos 1610 Rocket 4.5 18:57:53 10° S 19:04:04 85° E 19:10:22 10° N
Cosmos 2333 Rocket 3.2 19:01:06 10° SSE 19:05:31 24° ESE 19:08:25 16° ENE
Meteor 2-4 Rocket 3.9 18:59:59 10° N 19:05:42 53° ENE 19:11:28 10° SSE
GP-B 3.3 19:01:30 10° SSE 19:05:45 49° E 19:10:03 10° N
FALCON 9 DEB 4.3 19:03:58 10° NW 19:07:01 29° NNE 19:08:06 24° ENE
Cosmos 1500 3.0 19:04:58 10° S 19:08:39 64° E 19:12:21 10° NNE
Abrixas rocket 3.1 19:10:28 10° WNW 19:12:39 26° N 19:13:15 23° NNE
Cosmos 1503 Rocket 3.9 19:07:47 10° NNW 19:12:58 65° ENE 19:18:05 10° SSE
HJ-1C 3.9 19:11:36 10° S 19:14:53 61° W 19:18:10 10° NNW
Helios 1A Rocket 3.0 19:11:17 10° S 19:15:20 78° WSW 19:19:25 10° NNW
BREEZE-M DEB (TANK) 4.3 19:14:05 10° WSW 19:18:02 89° NNW 19:34:26 10° ENE
Ariane Rocket 3.6 19:19:27 28° ESE 19:21:09 35° ENE 19:25:45 10° N
SJ 16-02 3.6 19:24:06 10° NNE 19:24:29 11° NE 19:24:29 11° NE
Cosmos 44 Rocket 3.7 19:22:16 10° NW 19:27:29 68° WSW 19:32:10 12° SSE
Cosmos 2322 Rocket 2.8 19:22:24 10° SW 19:27:54 57° WNW 19:33:27 10° NNE
SJ-6B 3.1 19:28:27 42° ESE 19:29:08 46° ENE 19:33:02 10° N
Okean 1-7 3.0 19:25:00 10° N 19:29:19 59° E 19:31:28 28° SSE
Meteor 1-14 Rocket 4.3 19:26:31 10° SSW 19:32:05 75° W 19:37:39 10° N
SL-8 Rocket 4.0 19:27:13 10° S 19:33:19 59° E 19:39:25 10° NNE
Cosmos 962 Rocket 4.4 19:28:52 10° S 19:35:03 88° E 19:41:23 10° N
COSMOS 2428 4.0 19:30:22 10° SSE 19:32:47 22° SE 19:32:47 22° SE
Meteor 1-11 Rocket 4.0 19:30:23 10° SSE 19:35:46 44° E 19:41:05 10° NNE
Cosmos 1869 Rocket 4.1 19:39:35 39° NE 19:39:35 39° NE 19:42:46 10° NNE
SME Rocket 4.1 19:32:17 10° NNE 19:40:15 61° E 19:45:25 10° S
CZ-4 R/B 4.2 19:40:01 10° SW 19:42:39 18° W 19:45:21 10° NW
Cosmos 2219 Rocket 2.4 19:41:11 10° S 19:46:09 44° ESE 19:46:09 44° ESE
Cosmos 2366 rocket 3.9 19:41:31 10° S 19:47:42 62° E 19:53:57 10° NNE
Cosmos 1339 Rocket 4.4 19:41:41 10° N 19:47:53 76° E 19:53:47 12° SSE
IRS-1A Rocket 4.2 19:46:49 35° SE 19:49:13 65° ENE 19:54:44 10° N
Meteor 1-13 Rocket 4.2 19:44:38 10° N 19:50:35 66° ENE 19:53:01 36° SSE
SL-16 R/B 4.0 19:47:04 10° WSW 19:52:05 31° NW 19:57:07 10° N
MetOp-A 4.1 19:48:04 12° S 19:53:02 81° WSW 19:58:26 10° NNW
Cosmos 2341 Rocket 4.1 19:47:00 10° SSW 19:53:19 77° W 19:59:37 10° N
Cosmos 1066 Rocket 4.3 19:52:01 10° N 19:57:38 54° ENE 19:57:56 53° E
ATLAS CENTAUR R/B 2.2 19:55:22 10° WSW 19:58:49 41° NW 19:59:42 34° NNW
Cosmos 2084 Rocket 4.5 19:57:16 10° NW 20:01:27 44° WSW 20:02:46 34° SSW
SL-4 R/B 3.4 19:58:32 10° NW 20:00:36 25° NNW 20:00:36 25° NNW
Cosmos 2322 3.6 19:57:32 10° SSW 20:03:15 79° ESE 20:08:59 10° NNE
CZ-2C R/B 4.1 20:03:18 10° N 20:08:18 37° WNW 20:13:11 10° SW
Cosmos 1727 Rocket 3.9 20:04:22 10° N 20:10:31 62° E 20:10:41 61° E
Okean 3 4.5 20:08:19 10° N 20:11:01 38° N 20:11:01 38° N
Cosmos 2218 Rocket 4.0 20:06:57 10° S 20:13:21 83° W 20:19:48 10° N
ASTEX 1 3.4 20:10:28 10° N 20:15:22 79° W 20:15:59 67° SW
Cosmos 192 4.3 20:10:40 10° SSW 20:15:34 79° WNW 20:15:48 76° NNW
OBJECT-B 3.5 20:20:27 16° NNW 20:20:27 16° NNW 20:21:14 10° NNW
Meteor 2-20 4.5 20:14:45 10° N 20:20:13 61° NE 20:20:13 61° NE
BREEZE-M DEB (TANK) 3.7 20:20:09 10° NW 20:22:10 37° NNW 20:22:10 37° NNW
Resurs 01 Rocket 3.6 20:26:56 21° N 20:26:56 21° N 20:28:27 10° N
USA 234 3.6 20:24:19 28° NE 20:27:51 60° NNW 20:34:15 10° WSW
Cosmos 1844 Rocket 3.8 20:26:09 10° NW 20:31:17 38° WSW 20:33:33 27° SSW
Cosmos 2360 Rocket 4.1 20:38:04 10° WSW 20:42:52 28° NW 20:47:42 10° N
Cosmos 2278 Rocket 3.4 20:41:05 10° NNW 20:44:20 33° N 20:44:20 33° N
Cosmos 2333 Rocket 2.9 20:43:51 10° SW 20:49:23 52° WNW 20:50:48 42° NNW
SJ 16-02 4.0 21:00:41 10° NNW 21:01:29 15° NNW 21:01:29 15° NNW
Cosmos 2219 Rocket 4.2 21:25:42 10° WSW 21:37:51 - NNE 21:28:08 22° W
